Regional Weather Roundup
Issued by NWS

Home | Current Version | Previous Version | Graphics & Text | Print | Product List | Glossary On
Versions: 1 2 3 4 5 6 7 8 9 10 11 12 13 14 15 16 17 18 19 20 21 22 23 24 25 26 27 28 29 30 31 32 33 34 35 36 37 38 39 40 41 42 43 44 45 46 47 48 49 50
000
ASUS43 KIND 260309
RWRIN

WEATHER ROUNDUP FOR INDIANA
NATIONAL WEATHER SERVICE INDIANAPOLIS IN
1100 PM EDT TUE APR 25 2017

NOTE: "FAIR" INDICATES FEW OR NO CLOUDS BELOW 12,000 FEET WITH NO
SIGNIFICANT WEATHER AND/OR OBSTRUCTIONS TO VISIBILITY.

* - STATION DOES NOT REPORT WEATHER SUCH AS PRECIPITATION OR FOG.

+ - STATION NOT QUALITY CONTROLLED BY THE NATIONAL WEATHER SERVICE.
    USE DATA WITH CAUTION...ESPECIALLY DEWPOINT AND RELATIVE
    HUMIDITY OBSERVATIONS.

INZ001>003-010>013-019-020-260400-
NORTHWEST INDIANA

CITY           SKY/WX    TMP DP  RH WIND       PRES   REMARKS
GARY /AIRPORT/ MOCLDY    73  50  43 SE7       29.59R
KNOX *+        CLOUDY    66  32  28 SE9       29.62S
LA PORTE +     CLOUDY    66  56  71 SE14      29.60F
MICHIGAN CITY+ CLOUDY    68  54  60 SE12G17   29.57F
MONTICELLO +   CLOUDY    69  54  58 E5        29.62R
RENSSELAER +   CLOUDY    70  52  52 SE9       29.61R
VALPARAISO     CLOUDY    71  55  56 S10G17    29.62R

$$

LMZ046-743>745-260400-
SOUTHERN LAKE MICHIGAN

STATION/POSITION TIME  TEMP    WIND        PRES    WAVE
                       AIR SEA DIR/SP/G            HT
                 (UTC) (F)     (DEG/KT/KT) (MB)    (FT)
BURNS HARBOR     0240   71     180/  8/ 14 1003.0R
MICHIGAN CITY    0240   71     120/ 13/ 19   N/A

$$

INZ004-005-014>016-021>024-260400-
NORTH CENTRAL INDIANA

CITY           SKY/WX    TMP DP  RH WIND       PRES   REMARKS
GOSHEN         CLEAR     64  52  64 SE6       29.65R
LOGANSPORT +   MOCLDY    63  54  72 SE8       29.65R
PERU/GRISSOM   CLOUDY    64  57  77 S7        29.63R
ROCHESTER +    CLOUDY    68  55  64 SE3       29.65R
SOUTH BEND     PTCLDY    66  55  67 SE8       29.64R
WARSAW +       CLEAR     66  54  63 S3        29.65R

$$

INZ006>009-017-018-025>027-260400-
NORTHEAST INDIANA

CITY           SKY/WX    TMP DP  RH WIND       PRES   REMARKS
ANGOLA *+      CLEAR     63  55  77 E9        29.68R
AUBURN +       CLOUDY    64  52  63 E3        29.68R
FORT WAYNE     MOCLDY    65  54  67 SE8       29.66R
HUNTINGTON +   CLEAR     67  54  64 SE5       29.66R
KENDALLVILLE + CLOUDY    64  54  70 SE6       29.68R

$$

INZ028-029-035-036-043>045-051>053-260400-
WEST CENTRAL INDIANA

CITY           SKY/WX    TMP DP  RH WIND       PRES   REMARKS
CRAWFORDSVL +  CLOUDY    66  55  65 SE9       29.62R
GREENCASTLE +  CLOUDY    68  54  60 SE13      29.62S
LAFAYETTE      CLOUDY    66  56  70 CALM      29.62R
TERRE HAUTE    CLOUDY    71  54  54 S12       29.61R

$$

INZ030>032-037>040-046>048-054>057-064-065-260400-
CENTRAL INDIANA

CITY           SKY/WX    TMP DP  RH WIND       PRES   REMARKS
CP ATTERBURY + CLEAR     64  54  68 SE5       29.67R
FISHERS *+     CLEAR     64  57  77 S8        29.65R
FRANKFORT +    MOCLDY    68  56  66 S8        29.64S
GREENWOOD *+   CLEAR     67  54  63 S8        29.66R
INDIANAPOLIS   PTCLDY    68  55  63 SE14      29.64R
-EAGLE CREEK   PTCLDY    69  54  58 SE8       29.64R
KOKOMO +       CLOUDY    66  56  70 SE10      29.65R
MARION +       PTCLDY    64  55  72 SE7       29.66R
MT COMFORT *+  PTCLDY    64  55  72 S8        29.66R
SHELBYVILLE    CLEAR     68  54  60 S9        29.66R
ZIONSVILLE +   CLEAR     66  55  66 SE13      29.65R

$$

INZ033-034-041-042-049-050-058-059-260400-
EAST CENTRAL INDIANA

CITY           SKY/WX    TMP DP  RH WIND       PRES   REMARKS
MUNCIE         CLEAR     69  55  60 S7        29.66R
RICHMOND +     PTCLDY    61  54  77 SE8       29.69S

$$

INZ060-061-067>069-081>083-085>088-260400-
SOUTHWEST INDIANA

CITY           SKY/WX    TMP DP  RH WIND       PRES   REMARKS
EVANSVILLE     MOCLDY    69  56  62 S7        29.62R
HUNTINGBURG *+ PTCLDY    67  56  67 SE7       29.65
WASHINGTON +   CLOUDY   N/A N/A N/A MISG      29.61S

$$

INZ062-063-066-070>080-084-089>092-260400-
SOUTH CENTRAL AND SOUTHEAST INDIANA

CITY           SKY/WX    TMP DP  RH WIND       PRES   REMARKS
BEDFORD +      CLOUDY    66  54  63 SE7       29.65R
BLOOMINGTON    CLOUDY    68  54  60 S10       29.65R
MADISON *+     CLEAR     64  54  68 SE5       29.70R
NORTH VERNON + CLEAR     63  54  72 S3        29.69R
SEYMOUR +      CLEAR     64  55  72 SE8       29.67R

$$





USA.gov is the U.S. government's official web portal to all federal, state and local government web resources and services.